Regional Weather Roundup
Issued by NWS

Home | Current Version | Previous Version | Graphics & Text | Print | Product List | Glossary On
Versions: 1 2 3 4 5 6 7 8 9 10 11 12 13 14 15 16 17 18 19 20 21 22 23 24 25 26 27 28 29 30 31 32 33 34 35 36 37 38 39 40 41 42 43 44 45 46 47 48 49 50
000
ASUS43 KLSX 040207
RWRMO

WEATHER SUMMARY FOR MISSOURI
NATIONAL WEATHER SERVICE SPRINGFIELD MO
900 PM CDT SUN MAY 03 2015

NOTE: "FAIR" INDICATES FEW OR NO CLOUDS BELOW 12,000 FEET WITH NO
       SIGNIFICANT WEATHER AND/OR OBSTRUCTIONS TO VISIBILITY.
       CURRENT SKY AND/OR WEATHER CONDITIONS ARE NOT AVAILABLE FOR
       CHILLICOTHE AND FARMINGTON.

MOZ001>031-035>038-043-044-053-054-040300-
...NORTHERN AND WESTERN MISSOURI...

CITY           SKY/WX    TMP DP  RH WIND       PRES   REMARKS
KANSAS CTY INT MOCLDY    74  58  57 S15G24    29.85R
KANSAS C DTWN  PTCLDY    76  58  53 S14       29.85R
LEE`S SUMMIT   MOCLDY    74  58  57 S14G22    29.88R
ST JOSEPH      MOCLDY    76  59  55 S10       29.81R
CHILLICOTHE      N/A     74  58  57 S6        29.86S
KIRKSVILLE     CLEAR     74  58  57 S12       29.87S

$$
MOZ066>068-077>081-088>096-101>105-040300-
...SOUTHWEST MISSOURI...

CITY           SKY/WX    TMP DP  RH WIND       PRES   REMARKS
SPRINGFIELD    CLOUDY    69  55  60 S8        29.96R
JOPLIN         MOCLDY    69  57  65 S7        29.95R

$$
MOZ032>034-039>042-045>050-055>058-069>072-040300-
...CENTRAL MISSOURI...

CITY           SKY/WX    TMP DP  RH WIND       PRES   REMARKS
COLUMBIA       PTCLDY    70  56  61 S7        29.92R
JEFFERSON CITY PTCLDY    76  54  46 SE5       29.92R
ROLLA          PTCLDY    70  53  54 S7        29.95R
SEDALIA        PTCLDY    70  56  61 S10       29.92R
WHITEMAN AFB   MOCLDY    72  58  62 SW14      29.88R
WARRENSBURG    MOCLDY    72  55  56 S9        29.89R
OSAGE BEACH    MOCLDY    73  54  49 S6        29.94S

$$
MOZ051-052-059>065-040300-
...EAST CENTRAL MISSOURI...

CITY           SKY/WX    TMP DP  RH WIND       PRES   REMARKS
ST LOUIS INTL  LGT RAIN  78  50  37 S8        29.97R
SPIRIT OF STL  CLOUDY    74  51  44 S7        29.94R
ST CHARLES     CLOUDY    74  50  42 S9        29.94R

$$
MOZ072>076-082>087-097>100-106>115-040300-
...SOUTH CENTRAL AND SOUTHEAST MISSOURI...

CITY           SKY/WX    TMP DP  RH WIND       PRES   REMARKS
CAPE GIRARDEAU PTCLDY    70  48  45 S9        30.02R
FARMINGTON     PTCLDY    70  50  49 S7        30.04R
POPLAR BLUFF   PTCLDY    72  52  49 S6        30.01R
WEST PLAINS    PTCLDY    70  53  54 S7        30.02R

$$



USA.gov is the U.S. government's official web portal to all federal, state and local government web resources and services.